Hourly Weather Otoki

Today, 30 July, Friday

Time Temperature Precipitation Wind Pressure Humidity
00:00 +18°C° 0 mm 2 mps 743 mmHg 96%
01:00 +17°C° 0 mm 2 mps 743 mmHg 95%
02:00 +17°C° 0 mm 2 mps 743 mmHg 95%
03:00 +17°C° 0 mm 2 mps 743 mmHg 94%
04:00 +17°C° 0 mm 2 mps 743 mmHg 94%
05:00 +17°C° 0 mm 2 mps 743 mmHg 94%
06:00 +18°C° 0 mm 2 mps 743 mmHg 90%
07:00 +19°C° 0 mm 3 mps 743 mmHg 87%
08:00 +20°C° 0 mm 3 mps 743 mmHg 83%
09:00 +21°C° 0.1 mm 3 mps 743 mmHg 74%
10:00 +23°C° 0.1 mm 4 mps 743 mmHg 64%
11:00 +25°C° 0.1 mm 5 mps 743 mmHg 55%
12:00 +25°C° 0.1 mm 5 mps 743 mmHg 51%
13:00 +26°C° 0.1 mm 5 mps 743 mmHg 47%
14:00 +26°C° 0.1 mm 5 mps 743 mmHg 43%
15:00 +26°C° 0 mm 5 mps 743 mmHg 43%
16:00 +25°C° 0 mm 5 mps 742 mmHg 42%
17:00 +25°C° 0 mm 5 mps 742 mmHg 42%
18:00 +23°C° 0 mm 5 mps 742 mmHg 47%
19:00 +22°C° 0 mm 5 mps 742 mmHg 51%
20:00 +21°C° 0 mm 4 mps 742 mmHg 56%
21:00 +19°C° 0 mm 4 mps 742 mmHg 63%
22:00 +18°C° 0 mm 4 mps 742 mmHg 69%
23:00 +17°C° 0 mm 4 mps 742 mmHg 76%

Tomorrow, 31 July, Saturday

Time Temperature Precipitation Wind Pressure Humidity
00:00 +17°C° 0 mm 4 mps 742 mmHg 78%
01:00 +15°C° 0 mm 4 mps 742 mmHg 80%
02:00 +15°C° 0 mm 4 mps 742 mmHg 82%
03:00 +15°C° 0 mm 4 mps 742 mmHg 80%
04:00 +15°C° 0 mm 4 mps 742 mmHg 79%
05:00 +15°C° 0 mm 4 mps 742 mmHg 77%
06:00 +17°C° 0 mm 5 mps 742 mmHg 70%
07:00 +19°C° 0 mm 6 mps 743 mmHg 63%
08:00 +21°C° 0 mm 6 mps 743 mmHg 55%
09:00 +22°C° 0 mm 6 mps 743 mmHg 51%
10:00 +24°C° 0 mm 7 mps 743 mmHg 46%
11:00 +26°C° 0 mm 7 mps 743 mmHg 41%
12:00 +27°C° 0 mm 6 mps 743 mmHg 39%
13:00 +27°C° 0 mm 6 mps 743 mmHg 37%
14:00 +28°C° 0 mm 6 mps 743 mmHg 35%
15:00 +28°C° 0 mm 5 mps 743 mmHg 37%
16:00 +28°C° 0 mm 5 mps 743 mmHg 38%
17:00 +28°C° 0 mm 4 mps 743 mmHg 40%
18:00 +26°C° 0 mm 3 mps 743 mmHg 48%
19:00 +24°C° 0 mm 3 mps 743 mmHg 56%
20:00 +21°C° 0 mm 2 mps 744 mmHg 64%
21:00 +20°C° 0 mm 2 mps 743 mmHg 66%
22:00 +20°C° 0 mm 2 mps 743 mmHg 68%
23:00 +20°C° 0 mm 2 mps 743 mmHg 69%

Day after tomorrow, 1 August, Sunday

Time Temperature Precipitation Wind Pressure Humidity
00:00 +19°C° 0.4 mm 2 mps 743 mmHg 78%
01:00 +18°C° 0.4 mm 2 mps 743 mmHg 86%
02:00 +18°C° 0.4 mm 2 mps 743 mmHg 94%
03:00 +18°C° 0.4 mm 2 mps 743 mmHg 95%
04:00 +18°C° 0.4 mm 3 mps 743 mmHg 96%
05:00 +18°C° 0.4 mm 3 mps 743 mmHg 96%
06:00 +19°C° 0 mm 3 mps 743 mmHg 92%
07:00 +20°C° 0 mm 4 mps 743 mmHg 88%
08:00 +21°C° 0 mm 4 mps 743 mmHg 83%
09:00 +22°C° 0 mm 4 mps 743 mmHg 73%
10:00 +25°C° 0 mm 4 mps 743 mmHg 63%
11:00 +27°C° 0 mm 4 mps 743 mmHg 52%
12:00 +27°C° 0 mm 4 mps 743 mmHg 47%
13:00 +28°C° 0 mm 5 mps 743 mmHg 43%
14:00 +28°C° 0 mm 5 mps 743 mmHg 38%
15:00 +28°C° 0 mm 5 mps 743 mmHg 40%
16:00 +28°C° 0 mm 5 mps 744 mmHg 41%
17:00 +27°C° 0 mm 5 mps 744 mmHg 42%
18:00 +26°C° 0 mm 4 mps 744 mmHg 50%
19:00 +24°C° 0 mm 3 mps 744 mmHg 57%
20:00 +21°C° 0 mm 3 mps 744 mmHg 64%
21:00 +20°C° 0 mm 2 mps 744 mmHg 67%
22:00 +19°C° 0 mm 2 mps 744 mmHg 70%
23:00 +19°C° 0 mm 2 mps 744 mmHg 74%

2 August, Monday

Time Temperature Precipitation Wind Pressure Humidity
00:00 +19°C° 0 mm 1 mps 744 mmHg 75%
01:00 +19°C° 0 mm 1 mps 744 mmHg 77%
02:00 +19°C° 0 mm 1 mps 744 mmHg 78%
03:00 +19°C° 0.1 mm 1 mps 743 mmHg 80%
04:00 +18°C° 0.1 mm 1 mps 743 mmHg 82%
05:00 +18°C° 0.1 mm 1 mps 743 mmHg 83%
06:00 +18°C° 2 mm 1 mps 742 mmHg 88%
07:00 +18°C° 2 mm 1 mps 742 mmHg 92%
08:00 +16°C° 2 mm 2 mps 742 mmHg 97%
09:00 +16°C° 1.3 mm 2 mps 742 mmHg 97%
10:00 +17°C° 1.3 mm 2 mps 741 mmHg 96%
11:00 +17°C° 1.3 mm 2 mps 741 mmHg 96%
12:00 +17°C° 1.2 mm 2 mps 741 mmHg 96%
13:00 +17°C° 1.2 mm 2 mps 741 mmHg 95%
14:00 +18°C° 1.2 mm 2 mps 741 mmHg 95%
15:00 +17°C° 0.1 mm 3 mps 741 mmHg 94%
16:00 +17°C° 0.1 mm 4 mps 741 mmHg 92%
17:00 +17°C° 0.1 mm 4 mps 741 mmHg 91%
18:00 +17°C° 0 mm 4 mps 742 mmHg 92%
19:00 +16°C° 0 mm 3 mps 742 mmHg 93%
20:00 +16°C° 0 mm 2 mps 743 mmHg 94%
21:00 +15°C° 0 mm 2 mps 743 mmHg 94%
22:00 +15°C° 0 mm 2 mps 743 mmHg 95%
23:00 +14°C° 0 mm 2 mps 744 mmHg 96%

3 August, Tuesday

Time Temperature Precipitation Wind Pressure Humidity
00:00 +13°C° 0 mm 3 mps 744 mmHg 96%
01:00 +13°C° 0 mm 3 mps 744 mmHg 96%
02:00 +13°C° 0 mm 3 mps 744 mmHg 97%
03:00 +13°C° 0 mm 3 mps 744 mmHg 97%
04:00 +13°C° 0 mm 3 mps 745 mmHg 97%
05:00 +12°C° 0 mm 3 mps 745 mmHg 97%
06:00 +14°C° 0 mm 3 mps 746 mmHg 89%
07:00 +16°C° 0 mm 3 mps 746 mmHg 80%
08:00 +18°C° 0 mm 4 mps 746 mmHg 72%
09:00 +19°C° 0.1 mm 4 mps 746 mmHg 66%
10:00 +20°C° 0.1 mm 4 mps 746 mmHg 60%
11:00 +22°C° 0.1 mm 5 mps 747 mmHg 54%
12:00 +21°C° 0.3 mm 5 mps 747 mmHg 57%
13:00 +21°C° 0.3 mm 4 mps 747 mmHg 60%
14:00 +21°C° 0.3 mm 4 mps 747 mmHg 63%
15:00 +21°C° 0.5 mm 4 mps 747 mmHg 68%
16:00 +20°C° 0.5 mm 4 mps 747 mmHg 74%
17:00 +20°C° 0.5 mm 4 mps 748 mmHg 79%
18:00 +18°C° 0.3 mm 3 mps 748 mmHg 83%
19:00 +17°C° 0.3 mm 2 mps 748 mmHg 87%
20:00 +16°C° 0.3 mm 2 mps 748 mmHg 92%
21:00 +15°C° 0 mm 2 mps 749 mmHg 92%
22:00 +15°C° 0 mm 1 mps 749 mmHg 92%
23:00 +14°C° 0 mm 1 mps 749 mmHg 93%

4 August, Wednesday

Time Temperature Precipitation Wind Pressure Humidity
00:00 +14°C° 0 mm 1 mps 749 mmHg 93%
01:00 +14°C° 0 mm 1 mps 750 mmHg 93%
02:00 +14°C° 0 mm 1 mps 750 mmHg 93%
03:00 +14°C° 0 mm 1 mps 750 mmHg 93%
04:00 +13°C° 0 mm 0 mps 750 mmHg 93%
05:00 +12°C° 0 mm 0 mps 750 mmHg 92%
06:00 +14°C° 0 mm 0 mps 751 mmHg 88%
07:00 +15°C° 0 mm 0 mps 751 mmHg 84%
08:00 +19°C° 0 mm 1 mps 751 mmHg 80%
09:00 +20°C° 0.3 mm 1 mps 751 mmHg 72%
10:00 +22°C° 0.3 mm 1 mps 751 mmHg 65%
11:00 +23°C° 0.3 mm 1 mps 751 mmHg 57%
12:00 +24°C° 0.3 mm 2 mps 751 mmHg 56%
13:00 +24°C° 0.3 mm 2 mps 751 mmHg 55%
14:00 +25°C° 0.3 mm 2 mps 751 mmHg 54%
15:00 +24°C° 0.1 mm 1 mps 751 mmHg 55%
16:00 +24°C° 0.1 mm 1 mps 751 mmHg 56%
17:00 +22°C° 0.1 mm 0 mps 750 mmHg 56%
18:00 +23°C° 0 mm 1 mps 750 mmHg 62%
19:00 +21°C° 0 mm 1 mps 751 mmHg 67%
20:00 +19°C° 0 mm 2 mps 751 mmHg 73%
21:00 +18°C° 0 mm 2 mps 750 mmHg 74%
22:00 +18°C° 0 mm 2 mps 750 mmHg 76%
23:00 +17°C° 0 mm 2 mps 750 mmHg 77%
Show more